GSAT0227 (GALILEO 30)

Last updated on Wed Oct 29 2025 00:02:35 GMT+0000 (Coordinated Universal Time)

1 59600U 24079C 25300.71674549 .00000060 00000+0 00000+0 0 9999 2 59600 54.9671 107.5811 0003981 107.2676 252.7927 1.70474586 9406
UTC large
Height (km)
Speed (km/s)
/
Latitude / Longitude
Inclination (degrees)
Orbital Period (minutes)
Azimuth
Elevation
Range (km)
Doppler Factor

Next 0 passes for location: London (51.5072 / 0.1276)

Sorry there are no passes over London.